Time,TemperatureF,DewpointF,PressureIn,WindDirection,WindDirectionDegrees,WindSpeedMPH,WindSpeedGustMPH,Humidity,HourlyPrecipIn,Conditions,Clouds,dailyrainin,SoftwareType,DateUTC
2013-02-09 00:04:00,38.3,27.6,29.86,East,94,0.0,0.0,65,0.00,,---,0.00,VWS V14.01,2013-02-09 08:04:00,
2013-02-09 00:09:00,38.2,27.5,29.86,East,94,0.0,0.0,65,0.00,,---,0.00,VWS V14.01,2013-02-09 08:09:00,
2013-02-09 00:14:00,38.1,27.4,29.86,East,94,0.0,0.0,65,0.00,,---,0.00,VWS V14.01,2013-02-09 08:14:00,
2013-02-09 00:19:00,38.0,27.7,29.86,East,89,0.0,0.0,66,0.00,,---,0.00,VWS V14.01,2013-02-09 08:19:00,
2013-02-09 00:24:00,37.9,27.2,29.86,East,79,1.0,0.0,65,0.00,,---,0.00,VWS V14.01,2013-02-09 08:24:00,
2013-02-09 00:29:00,37.9,26.8,29.86,East,100,0.0,0.0,64,0.00,,---,0.00,VWS V14.01,2013-02-09 08:29:00,
2013-02-09 00:34:00,38.0,26.9,29.86,East,100,1.0,0.0,64,0.00,,---,0.00,VWS V14.01,2013-02-09 08:34:00,
2013-02-09 00:39:00,37.9,27.2,29.86,East,100,0.0,0.0,65,0.00,,---,0.00,VWS V14.01,2013-02-09 08:39:00,
2013-02-09 00:44:00,37.9,27.2,29.86,East,99,0.0,0.0,65,0.00,,---,0.00,VWS V14.01,2013-02-09 08:44:00,
2013-02-09 00:49:00,37.7,27.0,29.86,East,101,0.0,0.0,65,0.00,,---,0.00,VWS V14.01,2013-02-09 08:49:00,
2013-02-09 00:54:00,37.5,27.2,29.86,East,84,0.0,0.0,66,0.00,,---,0.00,VWS V14.01,2013-02-09 08:54:00,
2013-02-09 00:59:00,37.2,26.5,29.86,East,84,0.0,0.0,65,0.00,,---,0.00,VWS V14.01,2013-02-09 08:59:00,
2013-02-09 01:04:00,36.9,27.0,29.85,East,84,0.0,0.0,67,0.00,,---,0.00,VWS V14.01,2013-02-09 09:04:00,
2013-02-09 01:09:00,36.8,27.2,29.85,East,96,0.0,0.0,68,0.00,,---,0.00,VWS V14.01,2013-02-09 09:09:00,
2013-02-09 01:14:00,36.8,27.2,29.85,East,96,0.0,0.0,68,0.00,,---,0.00,VWS V14.01,2013-02-09 09:14:00,
2013-02-09 01:19:00,36.8,26.9,29.85,East,91,0.0,0.0,67,0.00,,---,0.00,VWS V14.01,2013-02-09 09:19:00,
2013-02-09 01:24:00,36.8,26.5,29.85,East,101,2.0,0.0,66,0.00,,---,0.00,VWS V14.01,2013-02-09 09:24:00,
2013-02-09 01:29:00,36.9,26.6,29.86,East,96,4.0,0.0,66,0.00,,---,0.00,VWS V14.01,2013-02-09 09:29:00,
2013-02-09 01:34:00,36.9,26.6,29.86,East,95,2.0,0.0,66,0.00,,---,0.00,VWS V14.01,2013-02-09 09:34:00,
2013-02-09 01:40:00,36.9,26.6,29.86,East,101,0.0,0.0,66,0.00,,---,0.00,VWS V14.01,2013-02-09 09:40:00,
2013-02-09 01:45:00,36.8,27.2,29.86,East,101,0.0,0.0,68,0.00,,---,0.00,VWS V14.01,2013-02-09 09:45:00,
2013-02-09 01:50:00,36.8,26.5,29.86,East,81,0.0,0.0,66,0.00,,---,0.00,VWS V14.01,2013-02-09 09:50:00,
2013-02-09 01:55:00,36.7,26.8,29.86,East,84,2.0,0.0,67,0.00,,---,0.00,VWS V14.01,2013-02-09 09:55:00,
2013-02-09 02:00:00,36.7,26.8,29.86,East,86,0.0,0.0,67,0.00,,---,0.00,VWS V14.01,2013-02-09 10:00:00,
2013-02-09 02:05:00,36.6,26.7,29.86,ENE,74,0.0,0.0,67,0.00,,---,0.00,VWS V14.01,2013-02-09 10:05:00,
2013-02-09 02:10:00,36.8,26.5,29.86,ESE,107,0.0,0.0,66,0.00,,---,0.00,VWS V14.01,2013-02-09 10:10:00,
2013-02-09 02:15:00,37.0,27.1,29.86,ENE,76,0.0,0.0,67,0.00,,---,0.00,VWS V14.01,2013-02-09 10:15:00,
2013-02-09 02:20:00,37.0,26.7,29.86,East,94,0.0,0.0,66,0.00,,---,0.00,VWS V14.01,2013-02-09 10:20:00,
2013-02-09 02:25:00,37.0,26.7,29.86,East,86,1.0,0.0,66,0.00,,---,0.00,VWS V14.01,2013-02-09 10:25:00,
2013-02-09 02:30:00,37.1,26.4,29.86,East,94,0.0,0.0,65,0.00,,---,0.00,VWS V14.01,2013-02-09 10:30:00,
2013-02-09 02:35:00,37.2,26.9,29.86,East,101,5.0,0.0,66,0.00,,---,0.00,VWS V14.01,2013-02-09 10:35:00,
2013-02-09 02:40:00,37.0,26.3,29.86,East,90,4.0,0.0,65,0.00,,---,0.00,VWS V14.01,2013-02-09 10:40:00,
2013-02-09 02:45:00,37.0,26.3,29.86,East,101,4.0,0.0,65,0.00,,---,0.00,VWS V14.01,2013-02-09 10:45:00,
2013-02-09 02:50:00,36.9,26.2,29.87,East,101,4.0,0.0,65,0.00,,---,0.00,VWS V14.01,2013-02-09 10:50:00,
2013-02-09 02:55:00,37.1,26.1,29.87,ESE,103,4.0,0.0,64,0.00,,---,0.00,VWS V14.01,2013-02-09 10:55:00,
2013-02-09 03:00:00,37.3,25.9,29.87,East,97,5.0,0.0,63,0.00,,---,0.00,VWS V14.01,2013-02-09 11:00:00,
2013-02-09 03:06:00,37.4,26.0,29.87,ENE,63,2.0,0.0,63,0.00,,---,0.00,VWS V14.01,2013-02-09 11:06:00,
2013-02-09 03:11:00,37.6,26.2,29.87,East,101,4.0,0.0,63,0.00,,---,0.00,VWS V14.01,2013-02-09 11:11:00,
2013-02-09 03:16:00,37.7,25.9,29.87,East,92,2.0,0.0,62,0.00,,---,0.00,VWS V14.01,2013-02-09 11:16:00,
2013-02-09 03:21:00,37.6,26.2,29.86,East,89,1.0,0.0,63,0.00,,---,0.00,VWS V14.01,2013-02-09 11:21:00,
2013-02-09 03:26:00,37.5,26.5,29.86,East,90,1.0,0.0,64,0.00,,---,0.00,VWS V14.01,2013-02-09 11:26:00,
2013-02-09 03:31:00,37.3,26.6,29.87,ENE,69,1.0,0.0,65,0.00,,---,0.00,VWS V14.01,2013-02-09 11:31:00,
2013-02-09 03:36:00,37.1,26.4,29.87,NE,54,1.0,0.0,65,0.00,,---,0.00,VWS V14.01,2013-02-09 11:36:00,
2013-02-09 03:41:00,36.9,26.6,29.87,East,86,1.0,0.0,66,0.00,,---,0.00,VWS V14.01,2013-02-09 11:41:00,
2013-02-09 03:46:00,36.6,26.3,29.86,East,86,0.0,0.0,66,0.00,,---,0.00,VWS V14.01,2013-02-09 11:46:00,
2013-02-09 03:51:00,36.2,26.0,29.87,East,101,0.0,0.0,66,0.00,,---,0.00,VWS V14.01,2013-02-09 11:51:00,
2013-02-09 03:56:00,36.1,25.5,29.87,East,97,0.0,0.0,65,0.00,,---,0.00,VWS V14.01,2013-02-09 11:56:00,
2013-02-09 04:01:00,36.1,25.9,29.87,East,82,0.0,0.0,66,0.00,,---,0.00,VWS V14.01,2013-02-09 12:01:00,
2013-02-09 04:06:00,36.0,26.1,29.87,East,97,2.0,0.0,67,0.00,,---,0.00,VWS V14.01,2013-02-09 12:06:00,
2013-02-09 04:11:00,36.1,25.5,29.86,East,101,1.0,0.0,65,0.00,,---,0.00,VWS V14.01,2013-02-09 12:11:00,
2013-02-09 04:16:00,36.3,25.7,29.86,East,94,5.0,0.0,65,0.00,,---,0.00,VWS V14.01,2013-02-09 12:16:00,
2013-02-09 04:21:00,36.4,25.8,29.86,East,86,0.0,0.0,65,0.00,,---,0.00,VWS V14.01,2013-02-09 12:21:00,
2013-02-09 04:26:00,36.4,26.1,29.87,East,86,0.0,0.0,66,0.00,,---,0.00,VWS V14.01,2013-02-09 12:26:00,
2013-02-09 04:31:00,36.1,25.9,29.87,East,86,0.0,0.0,66,0.00,,---,0.00,VWS V14.01,2013-02-09 12:31:00,
2013-02-09 04:37:00,36.0,26.1,29.87,East,90,4.0,0.0,67,0.00,,---,0.00,VWS V14.01,2013-02-09 12:37:00,
2013-02-09 04:42:00,35.9,25.7,29.87,ESE,106,0.0,0.0,66,0.00,,---,0.00,VWS V14.01,2013-02-09 12:42:00,
2013-02-09 04:47:00,35.8,25.6,29.87,East,95,1.0,0.0,66,0.00,,---,0.00,VWS V14.01,2013-02-09 12:47:00,
2013-02-09 04:52:00,35.8,25.9,29.87,East,96,0.0,0.0,67,0.00,,---,0.00,VWS V14.01,2013-02-09 12:52:00,
2013-02-09 04:57:00,35.7,25.8,29.87,East,96,0.0,0.0,67,0.00,,---,0.00,VWS V14.01,2013-02-09 12:57:00,
2013-02-09 05:02:00,35.6,26.1,29.87,East,96,0.0,0.0,68,0.00,,---,0.00,VWS V14.01,2013-02-09 13:02:00,
2013-02-09 05:07:00,35.5,26.7,29.87,East,96,0.0,0.0,70,0.00,,---,0.00,VWS V14.01,2013-02-09 13:07:00,
2013-02-09 05:12:00,35.2,26.4,29.87,ESE,115,0.0,0.0,70,0.00,,---,0.00,VWS V14.01,2013-02-09 13:12:00,
2013-02-09 05:17:00,35.0,26.6,29.87,East,96,0.0,0.0,71,0.00,,---,0.00,VWS V14.01,2013-02-09 13:17:00,
2013-02-09 05:22:00,34.8,26.4,29.87,ENE,60,1.0,0.0,71,0.00,,---,0.00,VWS V14.01,2013-02-09 13:22:00,
2013-02-09 05:27:00,34.7,26.3,29.88,ENE,63,0.0,0.0,71,0.00,,---,0.00,VWS V14.01,2013-02-09 13:27:00,
2013-02-09 05:32:00,34.6,26.2,29.88,NE,44,2.0,0.0,71,0.00,,---,0.00,VWS V14.01,2013-02-09 13:32:00,
2013-02-09 05:37:00,34.5,26.1,29.88,East,98,1.0,0.0,71,0.00,,---,0.00,VWS V14.01,2013-02-09 13:37:00,
2013-02-09 05:42:00,34.5,26.1,29.88,East,101,2.0,0.0,71,0.00,,---,0.00,VWS V14.01,2013-02-09 13:42:00,
2013-02-09 05:47:00,34.5,26.1,29.88,East,99,0.0,0.0,71,0.00,,---,0.00,VWS V14.01,2013-02-09 13:47:00,
2013-02-09 05:53:00,34.5,26.1,29.88,East,97,2.0,0.0,71,0.00,,---,0.00,VWS V14.01,2013-02-09 13:53:00,
2013-02-09 05:58:00,34.5,26.4,29.88,East,98,0.0,0.0,72,0.00,,---,0.00,VWS V14.01,2013-02-09 13:58:00,
2013-02-09 06:03:00,34.4,26.3,29.89,East,99,1.0,0.0,72,0.00,,---,0.00,VWS V14.01,2013-02-09 14:03:00,
2013-02-09 06:08:00,34.3,25.9,29.89,ENE,72,0.0,0.0,71,0.00,,---,0.00,VWS V14.01,2013-02-09 14:08:00,
2013-02-09 06:13:00,34.0,25.9,29.89,East,86,0.0,0.0,72,0.00,,---,0.00,VWS V14.01,2013-02-09 14:13:00,
2013-02-09 06:18:00,33.8,26.1,29.89,East,86,0.0,0.0,73,0.00,,---,0.00,VWS V14.01,2013-02-09 14:18:00,
2013-02-09 06:23:00,33.5,26.1,29.89,East,85,0.0,0.0,74,0.00,,---,0.00,VWS V14.01,2013-02-09 14:23:00,
2013-02-09 06:28:00,33.3,25.9,29.90,East,86,0.0,0.0,74,0.00,,---,0.00,VWS V14.01,2013-02-09 14:28:00,
2013-02-09 06:33:00,33.0,25.6,29.90,East,86,0.0,0.0,74,0.00,,---,0.00,VWS V14.01,2013-02-09 14:33:00,
2013-02-09 06:38:00,32.7,25.7,29.90,East,86,0.0,0.0,75,0.00,,---,0.00,VWS V14.01,2013-02-09 14:38:00,
2013-02-09 06:43:00,32.5,26.1,29.90,East,86,0.0,0.0,77,0.00,,---,0.00,VWS V14.01,2013-02-09 14:43:00,
2013-02-09 06:48:00,32.2,25.8,29.91,East,86,0.0,0.0,77,0.00,,---,0.00,VWS V14.01,2013-02-09 14:48:00,
2013-02-09 06:53:00,32.1,26.0,29.91,East,86,0.0,0.0,78,0.00,,---,0.00,VWS V14.01,2013-02-09 14:53:00,
2013-02-09 06:58:00,32.1,25.7,29.91,East,86,0.0,0.0,77,0.00,,---,0.00,VWS V14.01,2013-02-09 14:58:00,
2013-02-09 07:03:00,32.0,25.9,29.91,East,86,2.0,0.0,78,0.00,,---,0.00,VWS V14.01,2013-02-09 15:03:00,
2013-02-09 07:09:00,31.9,26.1,29.91,SW,224,0.0,0.0,79,0.00,,---,0.00,VWS V14.01,2013-02-09 15:09:00,
2013-02-09 07:14:00,31.8,26.0,29.91,SW,224,0.0,0.0,79,0.00,,---,0.00,VWS V14.01,2013-02-09 15:14:00,
2013-02-09 07:19:00,31.7,25.9,29.91,SW,224,0.0,0.0,79,0.00,,---,0.00,VWS V14.01,2013-02-09 15:19:00,
2013-02-09 07:24:00,31.8,25.7,29.91,SW,224,0.0,0.0,78,0.00,,---,0.00,VWS V14.01,2013-02-09 15:24:00,
2013-02-09 07:29:00,31.7,25.9,29.92,SW,224,0.0,0.0,79,0.00,,---,0.00,VWS V14.01,2013-02-09 15:29:00,
2013-02-09 07:34:00,31.7,25.6,29.92,SW,224,0.0,0.0,78,0.00,,---,0.00,VWS V14.01,2013-02-09 15:34:00,
2013-02-09 07:39:00,31.7,25.9,29.92,SW,225,0.0,0.0,79,0.00,,---,0.00,VWS V14.01,2013-02-09 15:39:00,
2013-02-09 07:44:00,31.7,25.9,29.92,SW,224,0.0,0.0,79,0.00,,---,0.00,VWS V14.01,2013-02-09 15:44:00,
2013-02-09 07:49:00,31.9,26.1,29.92,SW,225,0.0,0.0,79,0.00,,---,0.00,VWS V14.01,2013-02-09 15:49:00,
2013-02-09 07:54:00,31.9,26.1,29.92,SW,224,0.0,0.0,79,0.00,,---,0.00,VWS V14.01,2013-02-09 15:54:00,
2013-02-09 07:59:00,32.0,26.5,29.92,SW,224,0.0,0.0,80,0.00,,---,0.00,VWS V14.01,2013-02-09 15:59:00,
2013-02-09 08:04:00,32.0,26.5,29.92,SW,224,0.0,0.0,80,0.00,,---,0.00,VWS V14.01,2013-02-09 16:04:00,
2013-02-09 08:09:00,32.1,26.3,29.93,SW,224,0.0,0.0,79,0.00,,---,0.00,VWS V14.01,2013-02-09 16:09:00,
2013-02-09 08:14:00,32.2,26.7,29.93,SW,223,0.0,0.0,80,0.00,,---,0.00,VWS V14.01,2013-02-09 16:14:00,
2013-02-09 08:20:00,32.4,26.9,29.93,SW,224,0.0,0.0,80,0.00,,---,0.00,VWS V14.01,2013-02-09 16:20:00,
2013-02-09 08:25:00,32.6,27.1,29.93,SW,224,0.0,0.0,80,0.00,,---,0.00,VWS V14.01,2013-02-09 16:25:00,
2013-02-09 08:30:00,32.8,27.0,29.93,SE,126,0.0,0.0,79,0.00,,---,0.00,VWS V14.01,2013-02-09 16:30:00,
2013-02-09 08:35:00,33.2,27.1,29.93,East,98,1.0,0.0,78,0.00,,---,0.00,VWS V14.01,2013-02-09 16:35:00,
2013-02-09 08:40:00,33.9,27.1,29.94,East,101,0.0,0.0,76,0.00,,---,0.00,VWS V14.01,2013-02-09 16:40:00,
2013-02-09 08:45:00,34.5,27.4,29.94,East,101,0.0,0.0,75,0.00,,---,0.00,VWS V14.01,2013-02-09 16:45:00,
2013-02-09 08:50:00,35.2,27.4,29.94,East,101,0.0,0.0,73,0.00,,---,0.00,VWS V14.01,2013-02-09 16:50:00,
2013-02-09 08:55:00,36.1,28.3,29.94,ENE,76,1.0,0.0,73,0.00,,---,0.00,VWS V14.01,2013-02-09 16:55:00,
2013-02-09 09:00:00,37.1,28.2,29.94,ENE,76,0.0,0.0,70,0.00,,---,0.00,VWS V14.01,2013-02-09 17:00:00,
2013-02-09 09:05:00,38.2,28.9,29.94,ENE,76,0.0,0.0,69,0.00,,---,0.00,VWS V14.01,2013-02-09 17:05:00,
2013-02-09 09:10:00,39.2,29.2,29.94,ENE,76,0.0,0.0,67,0.00,,---,0.00,VWS V14.01,2013-02-09 17:10:00,
2013-02-09 09:15:00,40.2,30.1,29.94,ENE,76,0.0,0.0,67,0.00,,---,0.00,VWS V14.01,2013-02-09 17:15:00,
2013-02-09 09:20:00,41.2,30.7,29.94,ENE,76,0.0,0.0,66,0.00,,---,0.00,VWS V14.01,2013-02-09 17:20:00,
2013-02-09 09:25:00,42.2,30.5,29.94,NW,311,0.0,0.0,63,0.00,,---,0.00,VWS V14.01,2013-02-09 17:25:00,
2013-02-09 09:30:00,43.3,30.8,29.94,WSW,244,2.0,0.0,61,0.00,,---,0.00,VWS V14.01,2013-02-09 17:30:00,
2013-02-09 09:35:00,44.2,30.4,29.94,WNW,295,0.0,0.0,58,0.00,,---,0.00,VWS V14.01,2013-02-09 17:35:00,
2013-02-09 09:40:00,44.9,31.0,29.94,SE,126,0.0,0.0,58,0.00,,---,0.00,VWS V14.01,2013-02-09 17:40:00,
2013-02-09 09:46:00,45.4,31.1,29.94,WSW,248,0.0,0.0,57,0.00,,---,0.00,VWS V14.01,2013-02-09 17:46:00,
2013-02-09 09:51:00,46.0,32.1,29.94,NW,315,2.0,0.0,58,0.00,,---,0.00,VWS V14.01,2013-02-09 17:51:00,
2013-02-09 09:56:00,46.4,32.4,29.95,West,272,1.0,0.0,58,0.00,,---,0.00,VWS V14.01,2013-02-09 17:56:00,
2013-02-09 10:01:00,46.7,32.7,29.95,NNE,21,3.0,0.0,58,0.00,,---,0.00,VWS V14.01,2013-02-09 18:01:00,
2013-02-09 10:06:00,46.8,34.1,29.95,North,355,2.0,0.0,61,0.00,,---,0.00,VWS V14.01,2013-02-09 18:06:00,
2013-02-09 10:11:00,47.0,34.3,29.95,NW,311,0.0,0.0,61,0.00,,---,0.00,VWS V14.01,2013-02-09 18:11:00,
2013-02-09 10:16:00,46.8,34.9,29.95,NNE,16,1.0,0.0,63,0.00,,---,0.00,VWS V14.01,2013-02-09 18:16:00,
2013-02-09 10:21:00,46.7,34.8,29.95,NW,310,0.0,0.0,63,0.00,,---,0.00,VWS V14.01,2013-02-09 18:21:00,
2013-02-09 10:26:00,46.9,35.4,29.95,WNW,290,0.0,0.0,64,0.00,,---,0.00,VWS V14.01,2013-02-09 18:26:00,
2013-02-09 10:31:00,47.3,35.8,29.96,NW,324,0.0,0.0,64,0.00,,---,0.00,VWS V14.01,2013-02-09 18:31:00,
2013-02-09 10:36:00,47.6,36.0,29.96,WNW,292,1.0,0.0,64,0.00,,---,0.00,VWS V14.01,2013-02-09 18:36:00,
2013-02-09 10:41:00,47.4,35.8,29.96,NNE,28,3.0,0.0,64,0.00,,---,0.00,VWS V14.01,2013-02-09 18:41:00,
2013-02-09 10:46:00,47.6,35.6,29.96,NNW,340,0.0,0.0,63,0.00,,---,0.00,VWS V14.01,2013-02-09 18:46:00,
2013-02-09 10:52:00,47.8,36.2,29.96,WNW,293,3.0,0.0,64,0.00,,---,0.00,VWS V14.01,2013-02-09 18:52:00,
2013-02-09 10:57:00,47.7,35.7,29.96,WNW,282,2.0,0.0,63,0.00,,---,0.00,VWS V14.01,2013-02-09 18:57:00,
2013-02-09 11:02:00,47.7,36.1,29.96,SSW,193,4.0,0.0,64,0.00,,---,0.00,VWS V14.01,2013-02-09 19:02:00,
2013-02-09 11:07:00,47.6,36.0,29.96,WSW,240,0.0,0.0,64,0.00,,---,0.00,VWS V14.01,2013-02-09 19:07:00,
2013-02-09 11:12:00,47.7,35.7,29.96,NW,321,2.0,0.0,63,0.00,,---,0.00,VWS V14.01,2013-02-09 19:12:00,
2013-02-09 11:17:00,47.9,35.5,29.96,SW,229,1.0,0.0,62,0.00,,---,0.00,VWS V14.01,2013-02-09 19:17:00,
2013-02-09 11:22:00,48.3,35.5,29.96,WNW,286,3.0,0.0,61,0.00,,---,0.00,VWS V14.01,2013-02-09 19:22:00,
2013-02-09 11:27:00,48.6,36.2,29.96,NW,311,0.0,0.0,62,0.00,,---,0.00,VWS V14.01,2013-02-09 19:27:00,
2013-02-09 11:32:00,48.8,36.0,29.96,West,281,1.0,0.0,61,0.00,,---,0.00,VWS V14.01,2013-02-09 19:32:00,
2013-02-09 11:37:00,48.7,36.3,29.96,NNW,338,4.0,0.0,62,0.00,,---,0.00,VWS V14.01,2013-02-09 19:37:00,
2013-02-09 11:42:00,48.7,36.3,29.96,West,280,1.0,0.0,62,0.00,,---,0.00,VWS V14.01,2013-02-09 19:42:00,
2013-02-09 11:47:00,48.8,36.4,29.96,NNW,342,1.0,0.0,62,0.00,,---,0.00,VWS V14.01,2013-02-09 19:47:00,
2013-02-09 11:53:00,49.0,35.3,29.96,WNW,286,1.0,0.0,59,0.00,,---,0.00,VWS V14.01,2013-02-09 19:53:00,
2013-02-09 11:58:00,49.0,36.6,29.96,NW,315,1.0,0.0,62,0.00,,---,0.00,VWS V14.01,2013-02-09 19:58:00,
2013-02-09 12:03:00,48.9,36.5,29.96,SW,234,1.0,0.0,62,0.00,,---,0.00,VWS V14.01,2013-02-09 20:03:00,
2013-02-09 12:08:00,49.1,36.7,29.96,NNW,340,2.0,0.0,62,0.00,,---,0.00,VWS V14.01,2013-02-09 20:08:00,
2013-02-09 12:13:00,49.2,36.3,29.95,WNW,288,3.0,0.0,61,0.00,,---,0.00,VWS V14.01,2013-02-09 20:13:00,
2013-02-09 12:18:00,49.4,36.5,29.95,NW,306,4.0,0.0,61,0.00,,---,0.00,VWS V14.01,2013-02-09 20:18:00,
2013-02-09 12:23:00,49.6,36.7,29.95,ENE,69,0.0,0.0,61,0.00,,---,0.00,VWS V14.01,2013-02-09 20:23:00,
2013-02-09 12:28:00,49.8,37.3,29.95,NNW,335,0.0,0.0,62,0.00,,---,0.00,VWS V14.01,2013-02-09 20:28:00,
2013-02-09 12:33:00,50.2,37.3,29.95,NW,324,1.0,0.0,61,0.00,,---,0.00,VWS V14.01,2013-02-09 20:33:00,
2013-02-09 12:38:00,50.8,37.0,29.94,North,351,0.0,0.0,59,0.00,,---,0.00,VWS V14.01,2013-02-09 20:38:00,
2013-02-09 12:43:00,51.1,37.3,29.95,NNW,348,1.0,0.0,59,0.00,,---,0.00,VWS V14.01,2013-02-09 20:43:00,
2013-02-09 12:48:00,51.2,37.0,29.95,NNW,344,1.0,0.0,58,0.00,,---,0.00,VWS V14.01,2013-02-09 20:48:00,
2013-02-09 12:53:00,51.6,37.3,29.95,NNE,13,2.0,0.0,58,0.00,,---,0.00,VWS V14.01,2013-02-09 20:53:00,
2013-02-09 12:58:00,51.9,36.7,29.94,NNW,335,3.0,0.0,56,0.00,,---,0.00,VWS V14.01,2013-02-09 20:58:00,
2013-02-09 13:04:00,52.3,36.6,29.94,WSW,241,1.0,0.0,55,0.00,,---,0.00,VWS V14.01,2013-02-09 21:04:00,
2013-02-09 13:09:00,52.7,36.1,29.94,South,184,0.0,0.0,53,0.00,,---,0.00,VWS V14.01,2013-02-09 21:09:00,
2013-02-09 13:14:00,52.8,35.2,29.94,SSW,197,0.0,0.0,51,0.00,,---,0.00,VWS V14.01,2013-02-09 21:14:00,
2013-02-09 13:19:00,52.9,35.8,29.94,WNW,302,2.0,0.0,52,0.00,,---,0.00,VWS V14.01,2013-02-09 21:19:00,
2013-02-09 13:24:00,53.2,35.6,29.94,NW,316,0.0,0.0,51,0.00,,---,0.00,VWS V14.01,2013-02-09 21:24:00,
2013-02-09 13:29:00,53.6,36.4,29.94,NNE,15,1.0,0.0,52,0.00,,---,0.00,VWS V14.01,2013-02-09 21:29:00,
2013-02-09 13:34:00,54.0,36.3,29.94,West,281,3.0,0.0,51,0.00,,---,0.00,VWS V14.01,2013-02-09 21:34:00,
2013-02-09 13:39:00,54.2,36.5,29.94,WNW,292,0.0,0.0,51,0.00,,---,0.00,VWS V14.01,2013-02-09 21:39:00,
2013-02-09 13:44:00,54.5,35.2,29.94,West,273,1.0,0.0,48,0.00,,---,0.00,VWS V14.01,2013-02-09 21:44:00,
2013-02-09 13:49:00,54.5,34.7,29.94,SSW,199,0.0,0.0,47,0.00,,---,0.00,VWS V14.01,2013-02-09 21:49:00,
2013-02-09 13:54:00,54.2,35.5,29.94,South,190,0.0,0.0,49,0.00,,---,0.00,VWS V14.01,2013-02-09 21:54:00,
2013-02-09 13:59:00,54.4,34.1,29.94,SSW,208,1.0,0.0,46,0.00,,---,0.00,VWS V14.01,2013-02-09 21:59:00,
2013-02-09 14:04:00,54.3,35.0,29.94,NNE,25,2.0,0.0,48,0.00,,---,0.00,VWS V14.01,2013-02-09 22:04:00,
2013-02-09 14:09:00,55.0,35.2,29.94,SSE,155,0.0,0.0,47,0.00,,---,0.00,VWS V14.01,2013-02-09 22:09:00,
2013-02-09 14:14:00,55.0,35.2,29.94,NE,38,0.0,0.0,47,0.00,,---,0.00,VWS V14.01,2013-02-09 22:14:00,
2013-02-09 14:19:00,55.3,34.9,29.94,WNW,298,2.0,0.0,46,0.00,,---,0.00,VWS V14.01,2013-02-09 22:19:00,
2013-02-09 14:25:00,55.3,35.4,29.94,North,360,2.0,0.0,47,0.00,,---,0.00,VWS V14.01,2013-02-09 22:25:00,
2013-02-09 14:30:00,55.7,35.3,29.94,WSW,237,0.0,0.0,46,0.00,,---,0.00,VWS V14.01,2013-02-09 22:30:00,
2013-02-09 14:35:00,56.0,36.1,29.94,NW,320,0.0,0.0,47,0.00,,---,0.00,VWS V14.01,2013-02-09 22:35:00,
2013-02-09 14:40:00,55.7,35.3,29.94,SW,231,0.0,0.0,46,0.00,,---,0.00,VWS V14.01,2013-02-09 22:40:00,
2013-02-09 14:45:00,55.5,36.2,29.94,NNW,327,2.0,0.0,48,0.00,,---,0.00,VWS V14.01,2013-02-09 22:45:00,
2013-02-09 14:50:00,55.4,34.4,29.94,West,263,0.0,0.0,45,0.00,,---,0.00,VWS V14.01,2013-02-09 22:50:00,
2013-02-09 14:55:00,55.0,35.2,29.94,NNW,337,0.0,0.0,47,0.00,,---,0.00,VWS V14.01,2013-02-09 22:55:00,
2013-02-09 15:00:00,55.0,35.7,29.94,SSW,209,0.0,0.0,48,0.00,,---,0.00,VWS V14.01,2013-02-09 23:00:00,
2013-02-09 15:05:00,54.7,35.4,29.94,NW,324,1.0,0.0,48,0.00,,---,0.00,VWS V14.01,2013-02-09 23:05:00,
2013-02-09 15:10:00,54.7,35.4,29.94,WNW,283,1.0,0.0,48,0.00,,---,0.00,VWS V14.01,2013-02-09 23:10:00,
2013-02-09 15:15:00,54.5,35.2,29.94,West,280,0.0,0.0,48,0.00,,---,0.00,VWS V14.01,2013-02-09 23:15:00,
2013-02-09 15:20:00,54.0,34.8,29.94,WNW,288,0.0,0.0,48,0.00,,---,0.00,VWS V14.01,2013-02-09 23:20:00,
2013-02-09 15:25:00,53.7,34.5,29.94,SSW,213,1.0,0.0,48,0.00,,---,0.00,VWS V14.01,2013-02-09 23:25:00,
2013-02-09 15:30:00,53.4,34.7,29.94,SSW,208,0.0,0.0,49,0.00,,---,0.00,VWS V14.01,2013-02-09 23:30:00,
2013-02-09 15:35:00,53.2,34.5,29.94,NNE,24,0.0,0.0,49,0.00,,---,0.00,VWS V14.01,2013-02-09 23:35:00,
2013-02-09 15:40:00,53.1,35.0,29.94,NW,319,0.0,0.0,50,0.00,,---,0.00,VWS V14.01,2013-02-09 23:40:00,
2013-02-09 15:45:00,53.1,34.5,29.94,NW,321,1.0,0.0,49,0.00,,---,0.00,VWS V14.01,2013-02-09 23:45:00,
2013-02-09 15:50:00,53.0,34.9,29.94,NNE,32,0.0,0.0,50,0.00,,---,0.00,VWS V14.01,2013-02-09 23:50:00,
2013-02-09 15:55:00,52.9,34.8,29.94,NW,319,1.0,0.0,50,0.00,,---,0.00,VWS V14.01,2013-02-09 23:55:00,
2013-02-09 16:01:00,52.7,34.1,29.94,NW,319,0.0,0.0,49,0.00,,---,0.00,VWS V14.01,2013-02-10 00:01:00,
2013-02-09 16:06:00,52.5,33.9,29.95,NW,317,0.0,0.0,49,0.00,,---,0.00,VWS V14.01,2013-02-10 00:06:00,
2013-02-09 16:11:00,52.4,33.8,29.95,NW,309,2.0,0.0,49,0.00,,---,0.00,VWS V14.01,2013-02-10 00:11:00,
2013-02-09 16:16:00,52.3,33.2,29.94,WNW,286,0.0,0.0,48,0.00,,---,0.00,VWS V14.01,2013-02-10 00:16:00,
2013-02-09 16:21:00,52.1,32.0,29.95,WNW,300,0.0,0.0,46,0.00,,---,0.00,VWS V14.01,2013-02-10 00:21:00,
2013-02-09 16:26:00,51.9,33.4,29.94,WNW,288,0.0,0.0,49,0.00,,---,0.00,VWS V14.01,2013-02-10 00:26:00,
2013-02-09 16:31:00,51.7,32.7,29.94,WNW,287,0.0,0.0,48,0.00,,---,0.00,VWS V14.01,2013-02-10 00:31:00,
2013-02-09 16:36:00,51.6,33.1,29.94,West,276,0.0,0.0,49,0.00,,---,0.00,VWS V14.01,2013-02-10 00:36:00,
2013-02-09 16:41:00,51.4,32.4,29.93,West,259,0.0,0.0,48,0.00,,---,0.00,VWS V14.01,2013-02-10 00:41:00,
2013-02-09 16:46:00,51.3,32.8,29.93,WNW,284,0.0,0.0,49,0.00,,---,0.00,VWS V14.01,2013-02-10 00:46:00,
2013-02-09 16:51:00,51.1,32.6,29.93,WNW,298,0.0,0.0,49,0.00,,---,0.00,VWS V14.01,2013-02-10 00:51:00,
2013-02-09 16:56:00,50.9,33.4,29.94,WNW,298,0.0,0.0,51,0.00,,---,0.00,VWS V14.01,2013-02-10 00:56:00,
2013-02-09 17:01:00,50.6,33.2,29.94,WNW,298,0.0,0.0,51,0.00,,---,0.00,VWS V14.01,2013-02-10 01:01:00,
2013-02-09 17:06:00,50.3,32.9,29.94,WNW,298,0.0,0.0,51,0.00,,---,0.00,VWS V14.01,2013-02-10 01:06:00,
2013-02-09 17:12:00,50.0,33.1,29.94,WNW,299,0.0,0.0,52,0.00,,---,0.00,VWS V14.01,2013-02-10 01:12:00,
2013-02-09 17:17:00,49.6,33.7,29.94,WNW,298,0.0,0.0,54,0.00,,---,0.00,VWS V14.01,2013-02-10 01:17:00,
2013-02-09 17:22:00,49.2,33.3,29.94,WNW,298,0.0,0.0,54,0.00,,---,0.00,VWS V14.01,2013-02-10 01:22:00,
2013-02-09 17:27:00,48.7,33.3,29.94,WNW,298,0.0,0.0,55,0.00,,---,0.00,VWS V14.01,2013-02-10 01:27:00,
2013-02-09 17:32:00,48.1,33.6,29.95,WNW,298,0.0,0.0,57,0.00,,---,0.00,VWS V14.01,2013-02-10 01:32:00,
2013-02-09 17:37:00,47.6,33.1,29.95,WNW,298,0.0,0.0,57,0.00,,---,0.00,VWS V14.01,2013-02-10 01:37:00,
2013-02-09 17:42:00,47.1,33.5,29.95,WNW,298,0.0,0.0,59,0.00,,---,0.00,VWS V14.01,2013-02-10 01:42:00,
2013-02-09 17:47:00,46.6,32.2,29.95,WNW,298,0.0,0.0,57,0.00,,---,0.00,VWS V14.01,2013-02-10 01:47:00,
2013-02-09 17:52:00,46.2,31.8,29.94,WNW,298,0.0,0.0,57,0.00,,---,0.00,VWS V14.01,2013-02-10 01:52:00,
2013-02-09 17:57:00,46.0,32.1,29.95,WNW,298,0.0,0.0,58,0.00,,---,0.00,VWS V14.01,2013-02-10 01:57:00,
2013-02-09 18:02:00,45.8,31.5,29.95,WNW,298,0.0,0.0,57,0.00,,---,0.00,VWS V14.01,2013-02-10 02:02:00,
2013-02-09 18:07:00,45.4,31.9,29.95,WNW,298,0.0,0.0,59,0.00,,---,0.00,VWS V14.01,2013-02-10 02:07:00,
2013-02-09 18:12:00,45.0,31.5,29.95,WNW,298,0.0,0.0,59,0.00,,---,0.00,VWS V14.01,2013-02-10 02:12:00,
2013-02-09 18:18:00,44.8,32.6,29.95,WNW,298,0.0,0.0,62,0.00,,---,0.00,VWS V14.01,2013-02-10 02:18:00,
2013-02-09 18:23:00,44.5,31.5,29.95,WNW,298,0.0,0.0,60,0.00,,---,0.00,VWS V14.01,2013-02-10 02:23:00,
2013-02-09 18:28:00,44.2,31.6,29.96,WNW,298,0.0,0.0,61,0.00,,---,0.00,VWS V14.01,2013-02-10 02:28:00,
2013-02-09 18:33:00,44.0,31.4,29.96,WNW,298,0.0,0.0,61,0.00,,---,0.00,VWS V14.01,2013-02-10 02:33:00,
2013-02-09 18:38:00,43.7,32.0,29.96,WNW,298,0.0,0.0,63,0.00,,---,0.00,VWS V14.01,2013-02-10 02:38:00,
2013-02-09 18:43:00,43.3,32.0,29.96,WNW,298,0.0,0.0,64,0.00,,---,0.00,VWS V14.01,2013-02-10 02:43:00,
2013-02-09 18:48:00,43.2,32.2,29.96,WNW,298,0.0,0.0,65,0.00,,---,0.00,VWS V14.01,2013-02-10 02:48:00,
2013-02-09 18:53:00,43.1,32.5,29.97,WNW,298,0.0,0.0,66,0.00,,---,0.00,VWS V14.01,2013-02-10 02:53:00,
2013-02-09 18:58:00,43.2,32.6,29.97,WNW,298,0.0,0.0,66,0.00,,---,0.00,VWS V14.01,2013-02-10 02:58:00,
2013-02-09 19:03:00,43.1,33.3,29.97,WNW,298,0.0,0.0,68,0.00,,---,0.00,VWS V14.01,2013-02-10 03:03:00,
2013-02-09 19:08:00,42.9,32.7,29.97,WNW,298,0.0,0.0,67,0.00,,---,0.00,VWS V14.01,2013-02-10 03:08:00,
2013-02-09 19:13:00,42.7,32.5,29.97,WNW,298,0.0,0.0,67,0.00,,---,0.00,VWS V14.01,2013-02-10 03:13:00,
2013-02-09 19:18:00,42.5,33.1,29.97,WNW,298,0.0,0.0,69,0.00,,---,0.00,VWS V14.01,2013-02-10 03:18:00,
2013-02-09 19:24:00,42.3,32.9,29.97,WNW,298,0.0,0.0,69,0.00,,---,0.00,VWS V14.01,2013-02-10 03:24:00,
2013-02-09 19:29:00,42.2,32.8,29.97,WNW,298,0.0,0.0,69,0.00,,---,0.00,VWS V14.01,2013-02-10 03:29:00,
2013-02-09 19:34:00,41.9,32.8,29.98,WNW,298,0.0,0.0,70,0.00,,---,0.00,VWS V14.01,2013-02-10 03:34:00,
2013-02-09 19:39:00,41.7,32.7,29.98,WNW,298,0.0,0.0,70,0.00,,---,0.00,VWS V14.01,2013-02-10 03:39:00,
2013-02-09 19:44:00,41.5,32.5,29.98,WNW,298,0.0,0.0,70,0.00,,---,0.00,VWS V14.01,2013-02-10 03:44:00,
2013-02-09 19:49:00,41.2,32.5,29.98,WNW,297,0.0,0.0,71,0.00,,---,0.00,VWS V14.01,2013-02-10 03:49:00,
2013-02-09 19:54:00,41.1,33.1,29.98,WNW,298,0.0,0.0,73,0.00,,---,0.00,VWS V14.01,2013-02-10 03:54:00,
2013-02-09 19:59:00,41.1,33.1,29.98,WNW,299,0.0,0.0,73,0.00,,---,0.00,VWS V14.01,2013-02-10 03:59:00,
2013-02-09 20:04:00,41.0,32.7,29.98,WNW,298,0.0,0.0,72,0.00,,---,0.00,VWS V14.01,2013-02-10 04:04:00,
2013-02-09 20:09:00,40.9,32.6,29.97,WNW,298,0.0,0.0,72,0.00,,---,0.00,VWS V14.01,2013-02-10 04:09:00,
2013-02-09 20:14:00,40.8,32.5,29.97,WNW,298,0.0,0.0,72,0.00,,---,0.00,VWS V14.01,2013-02-10 04:14:00,
2013-02-09 20:19:00,40.7,32.4,29.98,WNW,298,0.0,0.0,72,0.00,,---,0.00,VWS V14.01,2013-02-10 04:19:00,
2013-02-09 20:24:00,40.6,32.3,29.98,WNW,298,0.0,0.0,72,0.00,,---,0.00,VWS V14.01,2013-02-10 04:24:00,
2013-02-09 20:30:00,40.5,32.5,29.98,NNE,22,0.0,0.0,73,0.00,,---,0.00,VWS V14.01,2013-02-10 04:30:00,
2013-02-09 20:35:00,40.3,32.7,29.98,NNE,22,0.0,0.0,74,0.00,,---,0.00,VWS V14.01,2013-02-10 04:35:00,
2013-02-09 20:40:00,40.1,32.5,29.98,NNE,22,0.0,0.0,74,0.00,,---,0.00,VWS V14.01,2013-02-10 04:40:00,
2013-02-09 20:45:00,40.0,32.4,29.98,NNE,22,0.0,0.0,74,0.00,,---,0.00,VWS V14.01,2013-02-10 04:45:00,
2013-02-09 20:50:00,39.8,32.5,29.98,NNE,22,0.0,0.0,75,0.00,,---,0.00,VWS V14.01,2013-02-10 04:50:00,
2013-02-09 20:55:00,39.7,32.4,29.98,NNE,23,0.0,0.0,75,0.00,,---,0.00,VWS V14.01,2013-02-10 04:55:00,
2013-02-09 21:00:00,39.6,32.7,29.98,NNE,22,0.0,0.0,76,0.00,,---,0.00,VWS V14.01,2013-02-10 05:00:00,
2013-02-09 21:01:00,39.6,32.7,29.98,NNE,22,0.0,0.0,76,0.00,,---,0.00,VWS V14.01,2013-02-10 05:01:00,
2013-02-09 21:06:00,39.6,32.7,29.98,NE,41,0.0,0.0,76,0.00,,---,0.00,VWS V14.01,2013-02-10 05:06:00,
2013-02-09 21:11:00,39.5,32.9,29.99,NE,41,0.0,0.0,77,0.00,,---,0.00,VWS V14.01,2013-02-10 05:11:00,
2013-02-09 21:16:00,39.6,33.0,29.99,NE,41,0.0,0.0,77,0.00,,---,0.00,VWS V14.01,2013-02-10 05:16:00,
2013-02-09 21:21:00,39.5,32.9,29.99,NE,41,0.0,0.0,77,0.00,,---,0.00,VWS V14.01,2013-02-10 05:21:00,
2013-02-09 21:26:00,39.4,32.8,29.99,NE,41,0.0,0.0,77,0.00,,---,0.00,VWS V14.01,2013-02-10 05:26:00,
2013-02-09 21:31:00,39.3,33.0,29.99,NE,41,0.0,0.0,78,0.00,,---,0.00,VWS V14.01,2013-02-10 05:31:00,
2013-02-09 21:36:00,39.3,33.0,29.99,NE,41,0.0,0.0,78,0.00,,---,0.00,VWS V14.01,2013-02-10 05:36:00,
2013-02-09 21:41:00,39.2,32.9,29.99,NE,41,0.0,0.0,78,0.00,,---,0.00,VWS V14.01,2013-02-10 05:41:00,
2013-02-09 21:46:00,39.2,32.9,29.98,NE,41,0.0,0.0,78,0.00,,---,0.00,VWS V14.01,2013-02-10 05:46:00,
2013-02-09 21:51:00,39.1,32.8,29.98,NE,41,0.0,0.0,78,0.00,,---,0.00,VWS V14.01,2013-02-10 05:51:00,
2013-02-09 21:57:00,39.0,32.7,29.99,NE,41,0.0,0.0,78,0.00,,---,0.00,VWS V14.01,2013-02-10 05:57:00,
2013-02-09 22:02:00,38.8,32.9,29.99,NE,40,0.0,0.0,79,0.00,,---,0.00,VWS V14.01,2013-02-10 06:02:00,
2013-02-09 22:07:00,38.7,32.8,29.99,NE,41,0.0,0.0,79,0.00,,---,0.00,VWS V14.01,2013-02-10 06:07:00,
2013-02-09 22:12:00,38.6,32.7,29.99,NE,41,0.0,0.0,79,0.00,,---,0.00,VWS V14.01,2013-02-10 06:12:00,
2013-02-09 22:17:00,38.6,33.0,29.99,NE,41,0.0,0.0,80,0.00,,---,0.00,VWS V14.01,2013-02-10 06:17:00,
2013-02-09 22:22:00,38.5,32.9,30.00,NE,41,0.0,0.0,80,0.00,,---,0.00,VWS V14.01,2013-02-10 06:22:00,
2013-02-09 22:27:00,38.5,32.9,30.00,NE,41,0.0,0.0,80,0.00,,---,0.00,VWS V14.01,2013-02-10 06:27:00,
2013-02-09 22:32:00,38.6,33.0,30.00,NE,41,0.0,0.0,80,0.00,,---,0.00,VWS V14.01,2013-02-10 06:32:00,
2013-02-09 22:37:00,38.6,33.0,30.00,NE,41,0.0,0.0,80,0.00,,---,0.00,VWS V14.01,2013-02-10 06:37:00,
2013-02-09 22:42:00,38.5,32.9,30.00,NE,41,0.0,0.0,80,0.00,,---,0.00,VWS V14.01,2013-02-10 06:42:00,
2013-02-09 22:47:00,38.4,32.8,30.00,NE,41,0.0,0.0,80,0.00,,---,0.00,VWS V14.01,2013-02-10 06:47:00,
2013-02-09 22:52:00,38.3,32.7,30.00,NE,41,0.0,0.0,80,0.00,,---,0.00,VWS V14.01,2013-02-10 06:52:00,
2013-02-09 22:57:00,38.1,32.5,30.00,NE,41,0.0,0.0,80,0.00,,---,0.00,VWS V14.01,2013-02-10 06:57:00,
2013-02-09 23:02:00,38.0,32.7,30.00,NE,41,0.0,0.0,81,0.00,,---,0.00,VWS V14.01,2013-02-10 07:02:00,
2013-02-09 23:07:00,38.0,32.7,30.00,NE,41,0.0,0.0,81,0.00,,---,0.00,VWS V14.01,2013-02-10 07:07:00,
2013-02-09 23:12:00,37.9,32.6,30.00,NE,41,0.0,0.0,81,0.00,,---,0.00,VWS V14.01,2013-02-10 07:12:00,
2013-02-09 23:17:00,37.7,32.4,30.00,NE,41,0.0,0.0,81,0.00,,---,0.00,VWS V14.01,2013-02-10 07:17:00,
2013-02-09 23:23:00,37.7,32.4,30.00,NE,40,0.0,0.0,81,0.00,,---,0.00,VWS V14.01,2013-02-10 07:23:00,
2013-02-09 23:28:00,37.6,32.3,30.00,NE,41,0.0,0.0,81,0.00,,---,0.00,VWS V14.01,2013-02-10 07:28:00,
2013-02-09 23:33:00,37.5,32.2,30.00,NE,41,0.0,0.0,81,0.00,,---,0.00,VWS V14.01,2013-02-10 07:33:00,
2013-02-09 23:38:00,37.4,32.4,30.00,NE,41,0.0,0.0,82,0.00,,---,0.00,VWS V14.01,2013-02-10 07:38:00,
2013-02-09 23:43:00,37.3,32.3,30.00,NE,41,0.0,0.0,82,0.00,,---,0.00,VWS V14.01,2013-02-10 07:43:00,
2013-02-09 23:48:00,37.2,32.2,30.01,NE,41,0.0,0.0,82,0.00,,---,0.00,VWS V14.01,2013-02-10 07:48:00,
2013-02-09 23:53:00,37.1,32.1,30.00,NE,41,0.0,0.0,82,0.00,,---,0.00,VWS V14.01,2013-02-10 07:53:00,
2013-02-09 23:58:00,37.1,32.1,30.01,NE,41,0.0,0.0,82,0.00,,---,0.00,VWS V14.01,2013-02-10 07:58:00,